[[{"header":{"parameterUnit":"m.s-1","parameterCategory":1,"la1":30.2991,"la2":30.254,"lo1":-89.0895,"lo2":-89.0444,"dy":0.0017,"dx":0.0017,"nx":28,"ny":28,"refTime":"2025-08-29T03:00:00:Z","depth":0,"parameterNumber":2,"parameterNumberName":"U-component_of_WINDS"},"data":[0,0,0,0,0,0,0,0,0,0,0,0,0,0,0,0,0,0,0,0,0,0,0,0,0,0,0,0,0,0,0,0,0,0,0,0,0,0,0,0,0,0,0,0,0,0,0,0,0,0,0,0,0,0,0,0,0,0,0.1816,0.1815,0,0.1644,0.1642,0.164,0.1446,0.1443,0.144,0.1438,0.1269,0.1267,0.1266,0,0,0,0,0,0,0,0,0,0,0,0,0,0.1985,0.1983,0.1817,0.1814,0.1812,0.1644,0.1642,0.1639,0.1447,0.1443,0.144,0.1436,0.127,0.1268,0.1265,0,0,0,0,0,0,0,0,0,0,0,0,0,0.1873,0.1983,0.1817,0.1696,0.1683,0.1645,0.1642,0.1639,0.1447,0.1443,0.1439,0.1435,0.127,0.1268,0.1265,0.1335,0,0,0.1257,0.1256,0,0,0,0,0,0,0,0,0.1879,0.1867,0.1716,0.1704,0.169,0.1562,0.1639,0.1537,0.1449,0.1537,0.1438,0.1433,0.1371,0.1359,0.1337,0.1327,0.132,0.1257,0.1255,0.1254,0.1253,0,0,0,0,0,0,0,0.1887,0.1873,0.1748,0.1714,0.1698,0.1652,0.1631,0.1619,0.1481,0.1529,0.1515,0.1496,0.1363,0.134,0.1331,0.1317,0.1257,0.1254,0.1253,0.1252,0.1353,0.1357,0,0,0,0,0,0,0.1913,0.1881,0.1754,0.1743,0.1776,0.1652,0.1629,0.1608,0.148,0.1456,0.15,0.1488,0.1347,0.1335,0.1325,0.1395,0.1254,0.1251,0.125,0.1349,0.1354,0.1359,0,0,0,0,0,0,0.1917,0.1903,0.1761,0.1808,0.1786,0.1654,0.1631,0.1606,0.1583,0.1458,0.1433,0.1502,0.1343,0.1329,0.1332,0.1387,0.125,0.1248,0.1344,0.1351,0.1357,0.154,0,0,0,0,0,0,0.1923,0.1906,0.193,0.181,0.1784,0.1771,0.1635,0.1606,0.1578,0.156,0.1453,0.1431,0.1338,0.1338,0.133,0.1381,0.1246,0.1338,0.1347,0.1355,0.1529,0.1552,0.1572,0,0,0,0,0,0.1929,0.1991,0.1932,0.1918,0.1811,0.1774,0.176,0.1649,0.1583,0.1607,0.1526,0.1435,0.1383,0.134,0.1329,0.1381,0.1335,0.1345,0.1354,0.1519,0.1548,0.1572,0,0,0,0,0,0,0.2124,0.1973,0.1906,0.193,0.1866,0.1741,0.1768,0.1683,0.1639,0.1625,0.1492,0.1469,0.1489,0.1435,0.139,0.144,0.1345,0.1354,0.1474,0.15,0.1522,0.1534,0.1243,0,0,0,0,0,0.2169,0.2149,0.2019,0.2053,0.2024,0.1902,0.1882,0.1801,0.1731,0.1704,0.1623,0.1561,0.1529,0.1512,0.1477,0.152,0.1493,0.155,0.1572,0.159,0.1599,0.1616,0.1639,0.1391,0.1391,0.1391,0,0,0.2263,0.2178,0.2174,0.209,0.203,0.2014,0.188,0.187,0.1856,0.1703,0.17,0.164,0.156,0.1584,0.159,0.1539,0.1661,0.1603,0.1619,0.1617,0.1628,0.1652,0.1673,0.1398,0.1396,0.1395,0,0,0.2426,0.236,0.2379,0.2322,0.2232,0.215,0.2156,0.2043,0.1995,0.199,0.1874,0.1858,0.1808,0.1755,0.1722,0.1863,0.1777,0.1856,0.1969,0.1987,0.2007,0.2024,0.2072,0.2092,0.1865,0.1865,0.1865,0,0.2555,0.2523,0.2401,0.2395,0.2361,0.2218,0.2237,0.2189,0.2095,0.2075,0.2019,0.1951,0.1888,0.1896,0.193,0.1909,0.1911,0.1867,0.2014,0.2029,0.2043,0.2088,0.2107,0.1875,0.1874,0.1873,0.1872,0,0.2685,0.2665,0.2692,0.26,0.2569,0.2577,0.2457,0.2441,0.2364,0.2289,0.2285,0.2204,0.2148,0.2145,0.2071,0.2142,0.2113,0.2038,0.194,0.2079,0.2118,0.2135,0.1889,0.1886,0.1883,0.188,0,0,0.2966,0.2804,0.2816,0.2771,0.2662,0.2645,0.2646,0.2589,0.2577,0.2517,0.2515,0.2475,0.2403,0.2366,0.2285,0.2301,0.2415,0.2222,0.2218,0.226,0.2487,0.2544,0.2566,0.2358,0.236,0.2363,0.2493,0,0.3108,0.3097,0.2986,0.3009,0.2988,0.2851,0.2852,0.2786,0.2716,0.269,0.2612,0.2585,0.2494,0.247,0.248,0.2399,0.2459,0.2389,0.2355,0.2355,0.2378,0.2587,0.2647,0.2774,0.2508,0.2511,0.2513,0,0.3271,0.3217,0.3236,0.3123,0.3111,0.3113,0.305,0.3027,0.295,0.2897,0.2855,0.2761,0.2756,0.2664,0.2655,0.2609,0.2589,0.2548,0.255,0.2542,0.2442,0.2583,0.2812,0.2831,0.2537,0.2535,0.2533,0,0.3472,0.3404,0.3405,0.3372,0.3241,0.3246,0.3193,0.311,0.3082,0.3029,0.3009,0.2958,0.2929,0.2892,0.2788,0.2731,0.2791,0.269,0.2747,0.275,0.2765,0.2766,0.2993,0.2755,0.2755,0.2755,0.2754,0,0.3641,0.3658,0.3493,0.3494,0.3509,0.3383,0.3402,0.3335,0.3263,0.325,0.313,0.3121,0.2984,0.296,0.2879,0.2883,0.2872,0.283,0.2808,0.2839,0.2845,0.2824,0.2812,0.276,0.2758,0.2757,0.2757,0,0.3867,0.3757,0.375,0.3626,0.3595,0.3611,0.3506,0.3502,0.3424,0.3409,0.3398,0.3276,0.3241,0.3133,0.3073,0.3018,0.3046,0.3005,0.3071,0.3057,0.3119,0.3114,0.334,0.3362,0.3113,0.3116,0.3118,0,0.3981,0.399,0.3866,0.3846,0.3797,0.3769,0.3738,0.3615,0.3588,0.3499,0.3507,0.3462,0.3419,0.337,0.3277,0.323,0.3186,0.3268,0.3178,0.3209,0.3185,0.3185,0.3185,0.3288,0.3291,0.3294,0.3296,0,0.4195,0.4139,0.4098,0.4039,0.4005,0.3953,0.3895,0.3887,0.3748,0.3726,0.3686,0.3653,0.3589,0.3545,0.3483,0.3429,0.3341,0.3325,0.3335,0.3367,0.3404,0.3383,0.3123,0.3321,0.3318,0.3316,0.3315,0.3314,0.4366,0.4367,0.4278,0.4237,0.4179,0.4127,0.4116,0.4035,0.4,0.3935,0.3866,0.3835,0.3756,0.3662,0.3615,0.359,0.3542,0.3558,0.3561,0.3567,0.3581,0.341,0.3579,0.3578,0.3577,0.3576,0.3576,0,0.4571,0.4507,0.447,0.439,0.4358,0.4274,0.4204,0.4184,0.4156,0.4089,0.4048,0.4003,0.3961,0.3864,0.3812,0.3811,0.3769,0.3801,0.3799,0.3788,0.3627,0.3623,0.3836,0.3836,0.3836,0.3836,0.3836,0.3836,0.4674,0.467,0.4605,0.4571,0.4507,0.4473,0.444,0.4391,0.4337,0.4291,0.4253,0.4189,0.411,0.4051,0.4009,0.3981,0.3968,0.4013,0.3973,0.3825,0.38,0.3776,0.3771,0.4012,0.4012,0.4135,0.4137,0.4137]},{"header":{"parameterUnit":"m.s-1","parameterCategory":1,"la1":30.2991,"la2":30.254,"lo1":-89.0895,"lo2":-89.0444,"dy":0.0017,"dx":0.0017,"nx":28,"ny":28,"refTime":"2025-08-29T03:00:00:Z","depth":0,"parameterNumber":3,"parameterNumberName":"V-component_of_WINDS"},"data":[0,0,0,0,0,0,0,0,0,0,0,0,0,0,0,0,0,0,0,0,0,0,0,0,0,0,0,0,0,0,0,0,0,0,0,0,0,0,0,0,0,0,0,0,0,0,0,0,0,0,0,0,0,0,0,0,0,0,2.5392,2.539,0,2.5234,2.5232,2.523,2.5014,2.501,2.5007,2.5003,2.484,2.4839,2.4838,0,0,0,0,0,0,0,0,0,0,0,0,0,2.5507,2.5506,2.5392,2.539,2.5388,2.5234,2.5232,2.523,2.5015,2.501,2.5006,2.5002,2.484,2.4839,2.4838,0,0,0,0,0,0,0,0,0,0,0,0,0,2.5414,2.5505,2.5393,2.5262,2.5249,2.5234,2.5232,2.5229,2.5016,2.501,2.5005,2.5,2.484,2.4839,2.4837,2.4937,0,0,2.4833,2.4832,0,0,0,0,0,0,0,0,2.5419,2.541,2.5283,2.5271,2.5256,2.5138,2.5212,2.5131,2.5017,2.5104,2.5003,2.4997,2.4943,2.4933,2.4915,2.4929,2.4922,2.4833,2.4832,2.4831,2.4831,0,0,0,0,0,0,0,2.5426,2.5415,2.5329,2.5282,2.5265,2.5211,2.5192,2.5196,2.5056,2.5096,2.508,2.5064,2.4935,2.4917,2.491,2.492,2.4833,2.4831,2.4831,2.483,2.5005,2.5011,0,0,0,0,0,0,2.5452,2.5422,2.5334,2.5325,2.5326,2.5214,2.5192,2.5182,2.5055,2.5031,2.5069,2.5055,2.4922,2.4912,2.4903,2.5009,2.4831,2.483,2.4829,2.5,2.5007,2.5013,0,0,0,0,0,0,2.5455,2.5446,2.5341,2.5369,2.5351,2.5218,2.5207,2.5181,2.5163,2.5035,2.5009,2.5077,2.4918,2.4905,2.493,2.5001,2.4829,2.4828,2.4993,2.5002,2.501,2.5224,0,0,0,0,0,0,2.5459,2.5449,2.5486,2.5371,2.5351,2.5372,2.5212,2.5182,2.5161,2.5141,2.5035,2.5012,2.4912,2.4933,2.4928,2.4995,2.4827,2.4986,2.4997,2.5007,2.521,2.5239,2.5264,0,0,0,0,0,2.5464,2.5552,2.5489,2.5479,2.5394,2.5376,2.5364,2.5247,2.5168,2.5204,2.5121,2.5016,2.4995,2.4938,2.493,2.4998,2.4981,2.4994,2.5006,2.5198,2.5233,2.5263,0,0,0,0,0,0,2.5678,2.5535,2.5463,2.5516,2.546,2.534,2.5381,2.5289,2.5253,2.5235,2.5092,2.507,2.5112,2.5057,2.4997,2.5087,2.4972,2.4984,2.5121,2.5153,2.5179,2.519,2.4825,0,0,0,0,0,2.5732,2.5729,2.5604,2.5664,2.5639,2.5516,2.5504,2.5419,2.5354,2.5329,2.5248,2.5189,2.5168,2.5158,2.5132,2.5202,2.5175,2.5245,2.5272,2.5294,2.5305,2.5336,2.5366,2.5054,2.5053,2.5053,0,0,2.5842,2.5763,2.577,2.5705,2.5651,2.5651,2.5497,2.5504,2.5502,2.5329,2.5347,2.5287,2.5211,2.5259,2.5275,2.5214,2.5386,2.531,2.5329,2.5327,2.5352,2.5382,2.5408,2.5062,2.506,2.5059,0,0,2.6041,2.5983,2.6025,2.5975,2.5896,2.5813,2.5824,2.5717,2.567,2.5686,2.5556,2.5552,2.5521,2.5471,2.5442,2.5625,2.5526,2.5621,2.5759,2.5791,2.5815,2.5836,2.5899,2.5924,2.5632,2.5633,2.5633,0,2.6188,2.6183,2.6059,2.6073,2.6048,2.5893,2.5934,2.5891,2.5808,2.5793,2.5727,2.5683,2.5621,2.5654,2.5699,2.5681,2.5687,2.5631,2.5822,2.5842,2.586,2.5918,2.5942,2.5645,2.5643,2.5642,2.5641,0,2.6366,2.6365,2.6409,2.6333,2.6312,2.634,2.6219,2.6214,2.6131,2.6056,2.6073,2.5994,2.5949,2.5951,2.587,2.5972,2.5936,2.5849,2.5729,2.5903,2.5956,2.5977,2.5662,2.5658,2.5654,2.5651,0,0,2.6694,2.6549,2.6567,2.653,2.6432,2.6428,2.645,2.6406,2.6403,2.6351,2.6364,2.6341,2.6258,2.6226,2.6138,2.6167,2.6314,2.6074,2.607,2.612,2.6419,2.6484,2.6513,2.6249,2.6253,2.6256,2.6425,0,2.6873,2.6901,2.679,2.6846,2.6842,2.6696,2.6714,2.6655,2.6586,2.6572,2.6494,2.6479,2.6373,2.6352,2.6374,2.6292,2.6372,2.6278,2.6257,2.6258,2.6279,2.654,2.6609,2.6772,2.6444,2.6448,2.645,0,2.7085,2.7045,2.7102,2.7,2.6994,2.7012,2.6963,2.6952,2.6883,2.683,2.6794,2.6694,2.6705,2.6595,2.6608,2.6547,2.6532,2.649,2.6494,2.6485,2.6363,2.6536,2.6821,2.6846,2.6482,2.6479,2.6477,0,2.7316,2.7276,2.7304,2.7277,2.716,2.7176,2.7128,2.7053,2.7034,2.6991,2.6976,2.6936,2.6913,2.6883,2.6774,2.6703,2.6799,2.6679,2.6754,2.6757,2.6779,2.6778,2.7063,2.6774,2.6774,2.6773,2.6773,0,2.7525,2.7565,2.7406,2.7423,2.7463,2.7335,2.7378,2.7315,2.725,2.7251,2.7123,2.7127,2.6983,2.6971,2.6885,2.6908,2.6899,2.6855,2.6832,2.6866,2.6871,2.6852,2.6837,2.678,2.6778,2.6777,2.6776,0,2.7788,2.7684,2.7704,2.7592,2.7565,2.7599,2.7502,2.7513,2.7436,2.7439,2.7433,2.7311,2.729,2.7179,2.7131,2.7073,2.7126,2.708,2.715,2.7134,2.7214,2.7207,2.7494,2.7524,2.722,2.7223,2.7225,0,2.7928,2.7955,2.7846,2.7838,2.7796,2.7786,2.7765,2.7641,2.7625,2.7549,2.7568,2.7537,2.7505,2.7478,2.7384,2.7347,2.7298,2.7402,2.7291,2.7324,2.7297,2.7296,2.7297,2.7424,2.7428,2.7432,2.7434,0,2.8186,2.8133,2.8109,2.8068,2.8048,2.8009,2.7963,2.7964,2.7826,2.7815,2.7792,2.7768,2.772,2.7689,2.7637,2.7585,2.7487,2.747,2.7485,2.7518,2.7556,2.7535,2.7211,2.7463,2.746,2.7458,2.7457,2.7456,2.8388,2.8405,2.8332,2.8309,2.8262,2.8222,2.8226,2.815,2.8129,2.8081,2.8009,2.7996,2.7925,2.7844,2.7801,2.7787,2.7731,2.7753,2.7758,2.7765,2.7782,2.7562,2.7778,2.7777,2.7776,2.7775,2.7774,0,2.8637,2.8583,2.8564,2.8504,2.8487,2.8398,2.8342,2.8333,2.8323,2.8266,2.8238,2.8211,2.8182,2.8087,2.8047,2.8055,2.8009,2.8048,2.8045,2.8034,2.7835,2.7825,2.8086,2.8086,2.8086,2.8086,2.8086,2.8086,2.8764,2.8788,2.8727,2.8725,2.867,2.8657,2.8632,2.8594,2.8547,2.8524,2.85,2.8439,2.8366,2.832,2.8288,2.8261,2.8251,2.8306,2.8263,2.8079,2.8049,2.802,2.801,2.8305,2.8305,2.8463,2.8464,2.8465]}]]